Weather History for Meadville, PA

Change the Weather History Date:

Wednesday, November 28, 2012

  Actual Average Record
Temperature  
Mean Temperature 30 °F -  
Max Temperature 35 °F 47 °F 70 °F (1990)
Min Temperature 26 °F 31 °F -1 °F (1950)
Degree Days  
Heating Degree Days 34    
Moisture  
Dew Point 21 °F    
Average Humidity 68    
Maximum Humidity 78    
Minimum Humidity 60    
Precipitation  
Precipitation 0.00 in - - ()
Sea Level Pressure  
Sea Level Pressure 30.28 in    
Wind  
Wind Speed 7 mph (SW)    
Max Wind Speed 15 mph    
Max Gust Speed 25 mph    
Visibility 10 miles    
Events      
Averages and records for this station are not official NWS values.
T = Trace of Precipitation, MM = Missing Value Source: NWS Daily Summary

Daily Weather History Graph

Daily Weather History Graph

Search for Another Location

Airport:

Trip Planner

Search our weather history database for the weather conditions in past years. The results will help you decide how hot, cold, wet, or windy it might be!

Date:

Astronomy

Nov. 28, 2012 Rise Set
Actual Time 7:25 AM EST 4:52 PM EST
Civil Twilight 6:54 AM EST 5:23 PM EST
Nautical Twilight 6:20 AM EST 5:57 PM EST
Astronomical Twilight 5:47 AM EST 6:30 PM EST
Moon 5:06 PM EST (11/28) 7:21 AM EST (11/28)
Length of Visible Light 10h 28m
Length of Day
9h 26m
Full, 100% of the Moon is Illuminated
Nov 28
Full
Dec 6
Last Quarter
Dec 13
New
Dec 20
First Quarter
Dec 28
Full

Hourly Weather History & Observations

Time (EST) Temp. Windchill Dew Point Humidity Pressure Visibility Wind Dir Wind Speed Gust Speed Precip Events Conditions
12:53 AM 26.1 °F 21.9 °F 19.9 °F 78% 30.28 in 10.0 mi South 3.5 mph - N/A   Mostly Cloudy
1:53 AM 27.0 °F 23.0 °F 19.9 °F 75% 30.26 in 10.0 mi South 3.5 mph - N/A   Overcast
2:53 AM 28.0 °F 22.8 °F 19.9 °F 72% 30.26 in 10.0 mi South 4.6 mph - N/A   Overcast
3:53 AM 28.0 °F 24.2 °F 19.9 °F 72% 30.24 in 10.0 mi South 3.5 mph - N/A   Overcast
4:28 AM 28.4 °F 22.2 °F 21.2 °F 74% 30.20 in 10.0 mi SSW 5.8 mph - N/A   Overcast
4:53 AM 28.0 °F 21.7 °F 19.9 °F 72% 30.25 in 10.0 mi SW 5.8 mph - N/A   Mostly Cloudy
5:05 AM 26.6 °F 21.2 °F 19.4 °F 74% 30.21 in 10.0 mi WSW 4.6 mph - N/A   Scattered Clouds
5:53 AM 27.0 °F 23.0 °F 19.0 °F 72% 30.26 in 10.0 mi SW 3.5 mph - N/A   Mostly Cloudy
6:53 AM 27.0 °F 19.5 °F 19.9 °F 75% 30.27 in 10.0 mi SSW 6.9 mph - N/A   Overcast
7:53 AM 27.0 °F 20.5 °F 19.0 °F 72% 30.27 in 10.0 mi SW 5.8 mph - N/A   Overcast
8:53 AM 28.0 °F 21.7 °F 19.9 °F 72% 30.28 in 10.0 mi SW 5.8 mph - N/A   Overcast
9:53 AM 30.0 °F 22.4 °F 19.9 °F 66% 30.29 in 9.0 mi SW 8.1 mph - N/A   Overcast
10:12 AM 30.2 °F 21.3 °F 19.4 °F 64% 30.24 in 10.0 mi SSW 10.4 mph - N/A   Overcast
10:53 AM 32.0 °F 25.6 °F 21.0 °F 64% 30.29 in 10.0 mi SW 6.9 mph - N/A   Overcast
11:07 AM 32.0 °F 23.0 °F 21.2 °F 64% 30.24 in 10.0 mi WSW 11.5 mph - N/A   Overcast
11:53 AM 33.1 °F 24.9 °F 21.9 °F 64% 30.29 in 10.0 mi WSW 10.4 mph - N/A   Mostly Cloudy
12:49 PM 35.6 °F 26.2 °F 23.0 °F 60% 30.23 in 10.0 mi WSW 15.0 mph 21.9 mph N/A   Overcast
12:53 PM 34.0 °F 24.6 °F 21.9 °F 61% 30.28 in 10.0 mi WSW 13.8 mph 21.9 mph N/A   Overcast
1:53 PM 33.1 °F 23.4 °F 23.0 °F 66% 30.28 in 10.0 mi West 13.8 mph 20.7 mph N/A   Overcast
2:53 PM 34.0 °F 25.5 °F 23.0 °F 64% 30.29 in 10.0 mi West 11.5 mph 25.3 mph N/A   Overcast
3:12 PM 33.8 °F 24.8 °F 23.0 °F 65% 30.24 in 10.0 mi West 12.7 mph - N/A   Overcast
3:53 PM 33.1 °F 24.9 °F 24.1 °F 70% 30.28 in 10.0 mi West 10.4 mph - N/A   Overcast
4:53 PM 33.1 °F 24.9 °F 23.0 °F 66% 30.30 in 10.0 mi West 10.4 mph - N/A   Overcast
5:53 PM 32.0 °F 24.8 °F 21.9 °F 66% 30.32 in 10.0 mi WSW 8.1 mph - N/A   Mostly Cloudy
6:53 PM 32.0 °F 26.4 °F 21.0 °F 64% 30.33 in 10.0 mi WSW 5.8 mph - N/A   Overcast
7:04 PM 32.0 °F 24.8 °F 21.2 °F 64% 30.28 in 10.0 mi SW 8.1 mph - N/A   Overcast
7:49 PM 32.0 °F 24.8 °F 21.2 °F 64% 30.28 in 10.0 mi SW 8.1 mph - N/A   Overcast
7:53 PM 32.0 °F 25.6 °F 21.0 °F 64% 30.33 in 10.0 mi SW 6.9 mph - N/A   Overcast
8:53 PM 32.0 °F 24.8 °F 21.0 °F 64% 30.32 in 10.0 mi SW 8.1 mph - N/A   Mostly Cloudy
9:53 PM 32.0 °F 24.8 °F 21.9 °F 66% 30.32 in 10.0 mi WSW 8.1 mph - N/A   Scattered Clouds
10:53 PM 30.9 °F 25.2 °F 21.9 °F 69% 30.32 in 10.0 mi SW 5.8 mph - N/A   Mostly Cloudy
11:53 PM 32.0 °F 25.6 °F 23.0 °F 69% 30.32 in 10.0 mi SSW 6.9 mph - N/A   Overcast